Tracking 19247 objects as of 22-Sep-2018
HD Live streaming from Space Station
objects crossing your sky now

NAVSTAR 15 (USA 42)

Track NAVSTAR 15 (USA 42) now!
NAVSTAR 15 (USA 42) is classified as:


NORAD ID: 20185
Int'l Code: 1989-064A
Perigee: 21,513.7 km
Apogee: 21,585.7 km
Inclination: 54.0 °
Period: 773.8 minutes
Semi major axis: 27920 km
RCS: 1.9952 m2 (large)
Launch date: August 18, 1989
Source: United States (US)
Launch site: AIR FORCE EASTERN TEST RANGE (AFETR)
aabbcc
Your satellite tracking list
Your tracking list is empty




NASA's NSSDC Master Catalog

Two Line Element Set (TLE):
1 20185U 89064A   18263.71275049 -.00000043 +00000-0 +00000-0 0  9996
2 20185 054.0037 186.1737 0012899 284.0592 302.1321 01.86085808203606
Source of the keplerian elements: AFSPC